{"data":{"norad_id":67594,"intl_designator":"2026-018F","name":"STARLINK-36638","alt_names":[],"object_type":"PAYLOAD","status":"ACTIVE","operator":null,"country":"US","launch_date":"2026-01-29","launch_site_code":"AFWTR","launch_vehicle":null,"mission":null,"orbit_class":"UNKNOWN","rcs_meters":null,"size_class":null,"mass_kg":null,"dimensions":null,"purposes":["comms"],"wikipedia_slug":null,"has_3d_model":false,"image_url":null,"decayed_at":null,"tle_current":{"epoch":"2026-09-19T02:51:26.296704Z","epoch_age_seconds":188739,"freshness":"STALE","line1":"1 67594U 26018F   26262.11905436  .00013217  00000+0  41093-3 0  9998","line2":"2 67594  97.2858 325.5183 0000434  86.9909 273.1383 15.33450937 36973","mean_motion":15.33450937,"eccentricity":4.34e-5,"inclination_deg":97.2858,"raan_deg":325.5183,"arg_perigee_deg":86.9909,"mean_anomaly_deg":273.1383,"bstar":0.00041093,"rev_number":3697,"period_min":93.905841083979,"perigee_km":465.22849524722,"apogee_km":465.8225251531,"semimajor_km":6843.6625102002,"source":"CELESTRAK","updated_at":"2026-09-20T09:00:43.602253Z"}}}